Total_Precipitation_Accumulation
0.61 0.76 0.85 0.86 0.80 0.82 1.05 1.42 1.64 2.00 2.44 2.50 2.24 1.71 1.48 1.59 1.56 1.63 1.18 0.61 0.37 0.58 0.58 0.60 1.14 1.25 0.94 0.64 0.13 0.13 0.27 0.17 0.11 0.45 0.49 0.53 0.66 0.55 0.24 0.08 0.16 0.13 0.09 0.03 0.02 0.03 0.07
0.56 0.71 0.84 0.68 0.70 0.67 0.78 0.83 0.84 1.03 1.25 1.27 0.93 0.60 0.66 1.11 1.28 1.09 0.86 0.51 0.76 0.70 0.73 0.75 1.56 1.89 0.97 0.43 0.02 0.00 0.04 0.19 0.17 0.33 0.54 0.62 0.76 0.64 0.58 0.12 0.20 0.09 0.11 0.09 0.05 0.05 0.02
0.53 0.66 0.73 0.55 0.56 0.65 0.79 0.77 0.75 0.79 0.89 0.72 0.58 0.59 0.65 0.71 1.03 0.73 0.63 0.60 0.56 0.57 0.84 1.44 1.63 2.02 1.03 0.28 0.03 0.03 0.07 0.08 0.25 0.44 0.61 0.55 0.77 1.00 0.83 0.36 0.08 0.13 0.16 0.26 0.18 0.07 0.08
0.54 0.61 0.67 0.53 0.46 0.54 0.48 0.43 0.51 0.62 0.72 0.75 0.88 0.85 0.96 1.22 0.88 0.65 0.57 0.46 0.54 0.61 1.14 2.10 1.89 1.98 0.99 0.36 0.18 0.06 0.09 0.13 0.21 0.57 0.81 0.82 1.08 1.28 0.85 0.58 0.16 0.27 0.54 0.40 0.11 0.09 0.10
0.56 0.60 0.70 0.60 0.44 0.54 0.41 0.38 0.49 0.58 0.58 0.67 0.75 0.79 0.84 0.96 0.94 0.65 0.42 0.55 0.63 1.01 1.52 2.15 1.78 1.46 1.00 0.42 0.37 0.14 0.19 0.21 0.20 0.62 1.10 1.28 1.57 1.87 1.24 1.36 0.81 0.42 0.47 0.23 0.07 0.05 0.13
0.57 0.62 0.77 0.76 0.53 0.58 0.51 0.48 0.63 0.58 0.52 0.51 0.57 0.72 0.79 1.00 0.73 0.78 0.67 0.79 0.98 1.40 1.98 2.34 1.72 1.44 0.71 0.50 0.43 0.42 0.49 0.38 0.27 0.88 1.99 1.82 1.69 2.18 1.86 2.19 1.39 0.44 0.15 0.07 0.08 0.03 0.14
0.56 0.63 0.81 0.85 0.62 0.65 0.57 0.56 0.72 0.68 0.56 0.58 0.67 0.69 0.89 1.27 1.19 1.17 1.48 1.90 1.87 1.84 1.76 1.57 1.08 0.49 0.47 0.66 0.63 0.85 0.62 0.97 0.53 1.39 2.64 2.32 1.81 1.64 1.44 1.04 0.72 0.47 0.42 0.23 0.03 0.05 0.07
0.58 0.63 0.80 0.85 0.68 0.69 0.56 0.61 0.61 0.58 0.69 0.94 1.16 1.20 0.92 1.36 1.72 2.06 2.18 1.86 1.82 1.87 1.66 0.89 0.59 0.32 0.48 1.16 1.26 1.25 0.94 0.83 0.65 0.95 2.05 2.72 2.02 0.50 0.69 0.93 1.09 0.60 0.47 0.23 0.13 0.10 0.14
0.50 0.54 0.78 0.95 0.78 0.81 0.72 0.69 0.60 0.66 0.85 0.91 1.04 1.25 1.20 1.77 2.22 2.24 1.81 1.87 1.91 2.07 2.46 1.24 0.86 0.95 0.98 1.58 1.20 1.41 1.16 0.90 0.53 0.64 1.81 2.04 1.29 0.69 0.86 1.34 1.65 1.01 0.39 0.33 0.45 0.26 0.25
0.61 0.70 0.92 1.13 0.82 0.80 0.76 0.72 0.75 0.82 0.97 0.97 1.10 1.25 1.36 2.03 2.98 2.22 2.19 2.36 1.85 1.71 2.37 1.53 1.32 1.55 1.48 1.83 1.30 0.89 1.02 1.10 0.73 0.68 1.34 1.62 0.87 0.94 0.90 1.33 1.46 1.52 0.32 0.31 0.58 0.66 0.47
0.81 0.94 1.09 1.11 0.82 0.85 0.89 0.82 0.80 0.92 0.96 0.95 1.23 1.29 1.39 2.30 2.99 2.38 2.11 2.01 2.07 2.68 2.88 2.03 1.66 1.67 1.76 1.52 1.41 0.89 1.06 1.31 0.68 0.58 1.25 1.43 1.03 1.00 1.07 1.12 1.04 1.41 0.54 0.56 0.86 0.72 0.75
1.18 1.18 1.16 1.19 1.17 1.07 1.00 0.99 1.01 0.99 0.93 0.90 1.25 1.06 1.32 2.07 2.52 1.82 1.62 2.18 2.84 2.89 2.10 2.25 1.87 2.20 2.10 1.46 1.03 1.25 1.67 1.58 0.96 0.72 0.82 0.83 0.84 1.05 0.94 0.93 1.02 0.96 1.32 1.09 1.22 1.31 1.56
1.28 1.39 1.46 1.50 1.43 1.22 1.13 1.08 1.15 1.20 1.17 1.05 1.07 0.99 0.94 1.34 2.01 2.17 2.21 2.86 3.12 1.69 1.27 2.09 2.02 1.86 1.96 1.30 0.92 1.03 1.91 1.74 1.49 1.33 1.50 1.33 1.25 1.54 1.02 1.61 1.81 1.87 2.81 3.48 3.06 2.41 0.96
1.41 1.37 1.59 1.60 1.47 1.27 1.21 1.12 1.21 1.27 1.35 1.34 1.10 1.28 1.11 0.78 1.51 2.55 2.81 2.70 1.80 0.72 1.20 1.80 1.68 1.90 1.79 0.89 1.04 1.37 1.56 1.25 0.71 0.80 0.87 1.25 1.64 1.85 1.35 1.52 2.15 2.27 2.52 2.45 1.74 1.08 0.79
1.41 1.42 1.41 1.63 1.58 1.34 1.52 1.62 1.58 1.48 1.43 1.46 1.07 1.48 2.00 1.38 1.54 2.27 2.52 2.31 0.95 1.14 1.17 1.89 2.31 2.70 1.79 0.95 1.51 2.06 1.24 1.00 0.87 0.60 0.83 0.70 1.16 1.14 0.97 1.09 2.12 2.17 2.09 1.27 1.33 0.86 0.89
1.36 1.48 1.51 1.72 1.91 1.57 1.58 1.82 1.83 1.40 1.27 1.44 1.52 1.51 1.90 1.49 1.63 2.39 2.40 1.44 0.94 1.25 1.71 1.70 1.69 1.37 1.43 1.14 1.67 1.27 1.26 0.87 0.44 0.21 0.30 0.71 0.94 0.96 1.11 1.13 1.55 1.20 1.15 1.58 1.85 1.61 1.26
1.40 1.49 1.61 1.73 1.90 1.88 1.52 1.70 1.82 1.18 1.08 1.14 1.15 2.02 1.81 1.69 2.36 2.93 2.31 1.34 1.07 1.19 1.78 1.50 0.74 0.47 0.41 0.81 0.75 0.79 1.07 1.14 0.58 0.29 0.20 0.53 0.81 1.01 0.94 1.10 1.21 1.30 1.75 1.35 1.15 0.87 1.35
1.49 1.80 1.79 1.68 1.57 1.65 1.73 2.02 1.54 1.21 1.33 1.47 1.43 2.00 1.86 1.84 3.56 2.32 1.39 1.19 1.15 1.41 1.58 1.16 0.67 0.34 0.28 0.39 0.73 0.73 0.81 0.91 0.50 0.28 0.24 0.32 0.72 0.82 0.64 0.23 0.31 0.83 0.87 0.77 1.44 1.08 1.10
1.47 1.90 2.23 2.04 1.49 1.40 1.63 1.65 1.19 1.41 1.71 2.08 1.71 1.70 2.51 1.40 1.57 0.93 0.90 1.25 1.38 1.48 1.42 1.00 0.63 0.31 0.21 0.24 0.51 0.34 0.41 0.35 0.24 0.15 0.07 0.21 0.61 0.69 0.78 0.56 0.41 0.78 0.75 0.75 0.77 1.18 1.26
1.64 1.62 2.12 2.06 1.75 1.41 1.36 1.12 1.08 1.25 1.52 1.64 1.67 2.03 3.17 2.67 0.71 0.38 0.77 1.18 1.23 1.16 1.11 0.75 0.67 0.36 0.30 0.22 0.12 0.10 0.15 0.23 0.30 0.35 0.19 0.18 0.29 0.53 0.62 0.62 0.65 0.74 0.59 0.70 0.98 1.47 0.93
1.45 1.60 2.05 2.45 2.23 1.83 1.24 0.82 0.79 0.78 1.08 1.01 1.15 1.03 0.91 1.00 0.43 0.24 0.72 1.03 1.22 1.28 0.83 0.79 0.76 0.31 0.25 0.24 0.10 0.08 0.09 0.19 0.28 0.49 0.50 0.41 0.37 0.55 0.59 0.34 0.37 0.78 0.62 0.57 1.02 0.80 1.17
1.77 1.76 1.84 2.37 2.53 2.03 1.34 0.78 0.56 0.63 1.21 1.11 0.88 0.57 0.23 0.13 0.07 0.13 0.48 0.91 1.21 0.79 0.68 0.68 0.53 0.28 0.28 0.20 0.08 0.05 0.10 0.16 0.27 0.36 0.45 0.34 0.35 0.35 0.50 0.45 0.69 0.55 0.33 0.41 0.34 0.39 0.44
1.75 1.98 1.91 2.01 2.43 1.69 1.06 0.89 0.86 1.09 1.71 1.58 0.80 0.47 0.28 0.16 0.12 0.23 0.31 0.68 0.75 0.71 0.63 0.34 0.38 0.35 0.21 0.11 0.08 0.04 0.07 0.05 0.12 0.20 0.17 0.20 0.17 0.29 0.73 0.53 0.57 0.52 0.40 0.25 0.21 0.26 0.17
1.51 1.57 1.67 1.91 2.15 1.42 0.75 0.69 0.60 0.62 1.02 1.29 0.75 0.65 0.38 0.21 0.09 0.14 0.17 0.39 0.60 0.64 0.69 0.44 0.36 0.34 0.15 0.14 0.13 0.06 0.05 0.06 0.05 0.06 0.10 0.15 0.10 0.21 0.50 0.28 0.48 0.32 0.29 0.43 0.25 0.20 0.06
1.30 1.54 1.66 1.55 1.24 0.87 0.53 0.59 0.68 0.65 0.81 0.70 0.57 0.67 0.38 0.26 0.09 0.11 0.12 0.23 0.42 0.49 0.59 0.50 0.33 0.28 0.24 0.35 0.29 0.23 0.25 0.23 0.11 0.05 0.05 0.05 0.11 0.23 0.37 0.44 0.19 0.06 0.12 0.17 0.12 0.07 0.05
1.04 1.22 1.33 1.34 0.86 0.60 0.40 0.32 0.33 0.31 0.35 0.46 0.61 0.64 0.41 0.28 0.12 0.06 0.08 0.13 0.45 0.64 0.72 0.53 0.37 0.20 0.29 0.45 0.32 0.27 0.34 0.17 0.10 0.06 0.04 0.04 0.05 0.29 0.23 0.24 0.08 0.02 0.00 0.00 0.13 0.26 0.04
1.19 1.68 1.98 1.95 1.38 0.61 0.53 0.42 0.35 0.33 0.38 0.38 0.56 0.57 0.51 0.31 0.04 0.05 0.09 0.15 0.36 0.69 0.87 0.61 0.41 0.37 0.41 0.54 0.29 0.06 0.07 0.03 0.04 0.04 0.06 0.17 0.18 0.25 0.22 0.30 0.02 0.00 0.00 0.00 0.06 0.13 0.06
0.95 1.16 1.41 1.19 1.02 0.58 0.61 0.42 0.29 0.26 0.41 0.36 0.31 0.51 0.48 0.30 0.06 0.03 0.06 0.13 0.14 0.43 1.05 0.83 0.57 0.48 0.48 0.54 0.30 0.07 0.01 0.01 0.01 0.00 0.00 0.05 0.10 0.12 0.11 0.12 0.02 0.00 0.01 0.04 0.04 0.00 0.00
1.53 1.22 1.07 0.86 0.64 0.41 0.48 0.37 0.30 0.31 0.49 0.52 0.27 0.32 0.50 0.38 0.10 0.04 0.04 0.06 0.10 0.26 0.71 0.82 0.58 0.46 0.30 0.33 0.15 0.06 0.02 0.01 0.00 0.02 0.00 0.01 0.00 0.01 0.01 0.02 0.00 0.00 0.01 0.00 0.00 0.00 0.00